Wind_Speed
21 23 26 31 33 34 36 33 27 29 22 21 22 26 24 21 22 34 35 31 28 30 28 25 24 22 19 19 20 20 19 19 22 23 25 29 31 31 32 27 27 26 27 29 27 25 27 31 31
25 23 24 26 31 33 32 29 31 26 23 17 13 15 28 25 24 29 33 31 28 18 16 18 22 25 25 26 25 25 23 23 24 27 31 32 31 31 33 31 30 29 27 27 26 29 32 34 34
26 27 23 28 31 34 29 22 22 27 25 21 10 15 26 30 28 25 35 38 37 39 35 34 29 26 26 25 26 26 26 26 28 30 35 34 34 33 33 31 30 27 26 25 26 28 31 30 30
25 27 27 27 28 31 24 21 20 24 29 25 16 24 31 32 27 30 33 39 46 44 43 43 37 34 32 31 30 29 31 33 35 36 38 38 38 37 36 33 32 29 26 28 29 31 33 32 33
25 26 29 30 26 29 31 27 22 21 27 19 13 35 38 40 37 36 37 38 39 41 41 39 38 39 39 37 37 37 37 39 41 42 42 41 39 40 37 36 32 27 27 29 30 34 35 33 33
27 24 27 31 29 33 38 26 24 19 25 19 16 28 29 33 33 28 26 31 33 35 37 39 39 40 39 39 40 40 42 42 45 46 42 41 42 40 37 35 30 28 30 32 30 34 33 35 37
28 23 27 26 32 37 40 30 27 19 12 15 15 22 30 31 26 19 26 30 33 36 39 40 41 43 44 44 45 45 43 44 45 42 40 44 42 39 39 33 29 29 31 31 32 34 33 32 31
30 28 30 32 34 37 40 38 26 26 31 30 19 30 32 38 42 32 26 31 38 43 44 44 45 44 43 45 45 44 44 44 41 39 41 38 37 34 31 30 29 30 32 32 30 30 31 32 33
34 35 39 33 36 39 34 37 31 23 32 36 29 33 39 48 44 42 39 45 41 41 43 42 44 42 42 42 42 42 42 39 39 37 36 33 33 32 30 32 34 31 30 31 33 34 36 40 40
37 38 44 36 39 44 44 38 26 21 27 29 33 38 43 54 58 57 53 46 42 40 41 42 42 40 40 38 39 37 37 36 36 35 34 34 34 36 35 32 29 29 31 32 36 41 43 46 45
38 44 45 44 39 51 51 46 34 33 27 33 26 37 42 45 45 59 58 54 56 43 39 39 39 39 37 37 34 35 34 35 37 36 34 33 30 29 29 32 30 31 34 38 40 44 45 45 44
38 46 50 50 45 45 58 55 55 47 30 47 42 46 38 39 43 44 48 46 47 44 42 39 35 34 33 33 33 33 34 35 35 33 32 30 33 32 34 36 35 37 40 43 43 46 46 47 46
32 39 52 55 52 51 53 65 69 57 51 48 52 42 40 41 34 32 33 35 34 35 34 32 30 31 32 33 33 35 35 35 34 35 36 35 36 36 39 40 42 45 48 47 47 47 48 49 50
32 30 37 58 59 59 56 62 72 68 66 55 60 42 39 38 26 31 31 39 38 35 31 29 32 33 32 34 37 38 37 36 37 38 39 40 43 44 45 47 50 50 48 45 47 45 50 49 49
35 33 30 48 67 64 63 57 72 74 71 66 54 57 43 39 25 35 34 37 32 39 42 36 37 38 38 37 40 41 41 39 41 43 42 43 47 48 49 51 53 49 46 45 47 48 49 51 50
41 39 40 36 63 70 63 60 60 67 75 81 65 62 62 59 53 45 39 41 43 49 48 43 42 43 45 42 43 44 45 44 45 46 45 44 47 50 52 51 50 47 47 48 51 51 54 53 51
40 40 38 31 41 69 67 62 63 60 63 65 68 60 57 52 53 47 45 45 44 49 48 46 46 48 48 48 48 51 51 50 48 47 45 46 51 54 53 50 48 49 49 50 53 55 56 55 54
40 40 41 39 38 59 71 65 66 67 66 68 71 67 63 56 55 54 51 49 53 54 51 53 54 55 57 55 53 54 55 52 51 50 49 51 53 54 56 52 52 51 54 55 55 59 59 57 55
46 39 40 45 39 36 66 65 65 70 68 68 70 72 63 65 62 55 52 55 55 49 51 54 56 57 61 61 55 54 55 58 56 53 54 54 55 56 56 55 53 54 56 57 62 63 61 59 58
49 48 40 43 47 34 51 68 69 70 73 77 74 74 71 66 59 50 51 52 53 51 51 52 52 55 57 59 55 61 61 59 58 57 57 59 59 57 56 57 57 57 59 63 66 66 63 62 61
52 49 49 41 47 46 41 51 72 77 76 74 73 74 74 68 63 65 59 52 58 53 56 55 56 58 58 59 58 58 58 59 62 63 62 62 60 58 60 61 62 66 66 65 66 66 65 65 63
55 52 51 53 47 53 58 54 64 73 76 73 69 71 70 65 64 59 62 72 69 64 68 67 69 64 56 58 57 64 67 67 73 73 70 64 63 63 63 66 70 70 68 68 68 68 68 66 64
58 55 56 55 57 58 61 57 65 69 72 73 75 73 63 47 56 65 83 81 75 70 68 66 66 67 70 71 67 66 67 76 80 79 75 72 70 70 71 72 72 72 72 71 70 68 67 65 64
62 59 63 63 61 59 62 61 65 74 76 73 71 73 76 61 57 54 42 59 76 73 71 71 72 74 72 71 67 76 80 79 84 81 79 77 76 75 72 75 75 73 73 72 70 68 68 69 69
69 65 66 68 67 66 66 67 70 77 79 77 69 67 71 82 79 79 74 72 66 73 76 78 79 76 78 77 79 80 83 86 87 86 82 84 83 80 75 73 73 75 73 73 73 73 74 75 76
75 69 69 70 72 70 73 75 76 77 76 75 75 70 69 77 81 86 88 79 77 74 76 79 76 80 81 82 82 85 90 91 92 93 87 83 76 78 77 72 74 75 76 77 79 81 81 82 83
77 78 73 74 78 72 74 80 85 77 76 78 75 75 74 76 78 81 81 78 76 80 76 76 78 77 79 74 74 84 85 87 86 82 78 79 82 83 82 80 80 81 86 88 88 89 89 88 91
80 80 84 85 83 78 77 83 84 80 80 78 78 79 79 78 76 76 73 72 71 65 61 67 74 78 77 83 85 87 83 87 84 81 80 85 90 88 86 86 91 93 92 92 94 95 95 95 97
86 88 88 89 88 87 88 87 87 86 87 84 84 86 86 87 79 76 75 73 61 54 68 75 73 83 82 89 83 80 86 96 99 94 91 94 97 100 100 101 98 98 100 100 99 101 101 98 99
72 78 89 94 94 93 92 91 95 95 90 91 92 93 90 92 85 81 78 77 72 67 66 76 76 88 95 97 102 107 105 100 110 110 110 108 102 97 95 96 103 105 106 104 107 107 104 99 99
Wind_Direction
221 219 218 221 222 225 226 225 225 225 220 237 251 262 270 275 287 267 267 266 271 265 270 274 270 272 276 279 286 292 294 297 300 300 302 308 306 307 310 307 305 302 301 304 303 295 296 298 306
223 225 220 218 220 222 225 224 224 226 230 258 256 252 273 267 284 272 263 270 268 273 269 280 283 278 282 283 286 287 286 289 292 300 305 304 302 304 306 303 303 302 298 299 297 294 295 298 304
226 224 226 219 217 217 219 218 208 213 228 247 261 276 270 269 278 267 265 260 260 267 272 276 282 284 283 283 287 288 289 290 295 299 302 302 300 300 300 299 303 304 297 293 294 294 296 302 305
224 227 225 224 215 215 206 200 215 221 228 248 262 249 259 266 270 275 274 262 259 262 264 270 278 281 281 284 288 289 288 289 292 298 301 299 298 299 297 299 300 297 292 289 294 294 297 300 302
222 222 225 224 210 207 196 203 214 221 241 240 245 250 256 259 283 283 270 261 258 263 271 276 279 279 281 282 282 283 286 289 293 296 298 296 297 297 294 296 297 292 291 291 294 297 297 298 303
228 230 225 222 210 201 203 209 207 218 230 237 217 236 251 275 277 286 261 257 257 262 268 272 274 277 278 280 281 283 286 288 289 293 295 294 296 292 292 295 292 292 289 289 296 297 297 300 306
236 229 232 214 207 202 205 204 202 204 209 165 218 260 262 274 274 295 268 262 262 266 265 267 269 272 275 277 279 282 285 288 289 292 293 293 292 292 292 288 287 291 290 288 298 300 300 304 311
230 231 232 214 207 200 203 202 186 198 215 208 240 251 268 280 275 272 275 268 265 265 263 265 268 271 274 277 280 283 284 287 289 288 290 290 289 289 286 284 288 291 295 293 298 298 299 306 312
235 232 236 220 204 189 200 195 191 196 212 213 266 266 269 265 266 276 273 276 278 276 272 274 276 275 275 278 281 282 284 284 285 287 290 288 286 281 282 291 287 296 297 295 299 300 303 306 308
240 235 237 230 205 190 184 173 187 184 210 218 245 269 260 257 265 269 266 270 269 271 272 273 276 276 279 281 282 283 285 287 288 287 286 283 280 278 283 287 294 297 297 299 301 300 302 304 307
245 244 237 232 221 200 179 181 177 170 179 186 199 189 245 249 265 268 270 265 266 266 269 268 271 276 277 279 280 282 283 285 286 283 281 280 278 278 281 289 298 299 298 300 302 301 302 302 305
245 244 238 237 226 215 199 188 199 213 214 204 210 212 233 249 262 267 268 267 269 264 264 267 271 273 277 279 277 278 280 282 281 279 280 279 278 280 284 291 299 300 301 300 302 300 297 300 301
245 250 243 235 231 224 218 199 199 219 221 221 229 211 238 231 254 266 273 280 268 269 269 265 266 271 272 272 275 276 276 277 278 275 279 280 282 285 289 294 295 295 301 300 299 298 299 300 301
252 264 251 236 231 228 223 213 201 215 221 233 236 235 224 224 256 265 270 268 270 269 262 257 266 265 269 275 276 274 273 273 273 275 279 282 285 288 292 294 297 298 299 297 296 296 303 305 305
260 260 269 243 231 229 226 217 213 213 226 234 228 229 222 228 256 271 269 269 259 277 280 270 269 274 274 274 277 273 273 270 271 277 279 282 285 291 293 296 296 297 294 293 295 298 304 303 305
260 263 261 264 236 232 228 227 224 225 224 228 230 231 233 242 251 257 265 246 266 276 281 284 279 275 276 278 277 272 270 268 269 274 278 282 285 289 291 293 293 291 292 293 296 301 304 303 303
258 262 265 273 248 234 229 226 230 228 231 230 224 244 247 250 253 250 248 253 254 273 276 281 282 281 276 276 278 269 271 272 273 274 277 281 284 289 289 290 289 288 287 288 292 297 301 299 300
259 263 264 263 269 235 231 228 227 230 228 229 230 239 244 245 252 258 257 253 264 271 274 276 281 278 277 278 282 276 269 269 272 275 279 283 285 284 287 288 286 284 288 288 288 293 297 295 298
256 257 263 263 270 261 232 233 233 231 233 233 237 239 245 247 249 250 255 257 262 271 274 278 279 278 279 280 277 271 270 273 275 278 280 281 280 282 284 283 283 282 284 285 287 290 293 292 294
257 256 258 260 261 263 245 231 232 233 233 233 236 240 244 249 249 250 252 259 265 260 262 264 268 273 275 278 278 273 272 273 274 277 279 280 280 280 280 279 282 284 285 284 286 290 289 289 291
258 256 255 258 262 263 257 247 237 234 234 236 239 244 247 249 256 256 257 254 260 258 262 269 270 272 272 268 269 271 271 273 278 280 279 280 279 276 277 279 280 283 285 287 287 287 286 286 287
257 257 250 249 250 253 251 242 245 244 240 237 240 243 248 252 253 265 267 258 258 261 262 264 267 276 272 277 274 271 269 273 281 282 280 279 280 279 277 277 282 284 283 284 283 283 283 284 286
255 253 250 248 246 244 250 246 244 247 244 241 237 237 242 247 263 273 264 265 261 258 259 265 268 268 269 277 279 273 270 275 281 282 280 282 282 280 278 278 280 282 284 283 281 281 282 284 284
256 254 251 249 248 247 250 250 249 246 249 244 240 241 237 238 233 234 246 260 257 258 260 264 268 270 272 274 269 273 276 274 279 277 278 279 278 277 279 281 280 282 282 281 281 283 283 283 283
252 249 251 251 251 251 251 249 249 249 248 250 249 242 241 237 236 239 242 249 253 261 267 271 273 275 276 272 272 273 275 274 275 277 276 276 276 278 278 283 280 281 281 281 281 281 281 282 283
261 254 250 250 251 249 250 251 252 251 254 253 251 248 244 244 242 243 247 252 258 261 267 273 275 274 274 274 274 271 268 271 273 276 277 278 276 278 283 279 281 282 280 281 282 283 283 283 283
256 260 256 250 250 248 251 251 250 249 251 253 253 254 249 245 245 247 248 251 253 259 266 270 277 276 269 262 255 258 261 265 268 268 270 273 275 278 278 274 278 280 280 281 282 282 282 284 285
257 256 256 255 252 251 248 249 252 251 250 251 252 252 251 248 246 250 248 249 251 257 264 265 265 258 263 260 254 258 260 265 263 265 268 271 275 278 275 273 277 279 280 280 281 283 284 284 284
261 258 254 254 254 252 249 251 251 248 250 250 252 252 251 248 244 244 247 246 243 248 240 246 241 244 254 255 252 254 259 262 263 262 266 271 273 277 275 274 274 278 282 281 284 284 285 285 285
261 260 261 260 254 253 253 250 252 253 252 250 248 248 249 253 248 242 242 242 236 227 219 225 240 245 252 249 258 263 266 267 270 271 271 272 273 275 275 274 278 281 283 285 285 284 284 285 284
Height
10944 10945 10947 10949 10951 10954 10958 10964 10967 10967 10970 10974 10973 10971 10966 10968 10974 10975 10977 10981 10981 10981 10981 10982 10984 10984 10985 10985 10985 10985 10984 10984 10983 10983 10981 10979 10977 10975 10973 10971 10969 10967 10966 10964 10962 10959 10957 10953 10952
10941 10942 10943 10946 10948 10951 10956 10961 10963 10964 10966 10966 10966 10969 10963 10963 10971 10973 10973 10975 10977 10977 10978 10978 10980 10981 10982 10982 10981 10981 10981 10980 10980 10979 10978 10975 10973 10971 10969 10967 10965 10964 10962 10960 10958 10955 10952 10949 10948
10936 10938 10940 10941 10942 10949 10955 10958 10957 10958 10961 10961 10959 10961 10963 10963 10968 10971 10972 10974 10974 10975 10974 10975 10976 10976 10978 10978 10978 10978 10977 10976 10975 10975 10973 10971 10969 10967 10965 10963 10961 10959 10958 10956 10954 10950 10948 10946 10944
10932 10933 10935 10937 10941 10946 10955 10956 10953 10957 10959 10959 10959 10956 10957 10960 10964 10965 10968 10970 10970 10970 10971 10972 10972 10972 10973 10974 10974 10974 10973 10972 10971 10970 10968 10966 10965 10962 10961 10959 10957 10955 10953 10951 10949 10946 10943 10943 10941
10928 10929 10930 10933 10942 10947 10951 10949 10949 10952 10953 10961 10958 10956 10955 10956 10959 10958 10961 10962 10964 10965 10966 10967 10968 10968 10967 10968 10968 10968 10968 10967 10966 10964 10962 10961 10959 10957 10956 10954 10952 10950 10949 10946 10944 10941 10939 10938 10938
10924 10925 10926 10931 10939 10945 10942 10945 10946 10946 10949 10951 10956 10955 10954 10952 10950 10953 10952 10956 10958 10958 10959 10961 10961 10962 10962 10961 10962 10962 10962 10961 10960 10959 10957 10955 10954 10953 10951 10949 10948 10946 10944 10941 10940 10937 10934 10934 10934
10919 10921 10921 10926 10931 10937 10937 10939 10940 10942 10944 10945 10949 10951 10948 10943 10940 10944 10945 10948 10950 10952 10953 10954 10954 10955 10955 10955 10955 10955 10955 10955 10953 10952 10951 10950 10948 10947 10945 10944 10943 10941 10939 10936 10936 10933 10929 10930 10930
10915 10916 10913 10919 10925 10931 10933 10937 10939 10939 10940 10945 10950 10948 10943 10937 10933 10939 10939 10941 10943 10945 10945 10946 10946 10947 10948 10947 10947 10947 10948 10948 10946 10946 10945 10944 10943 10941 10940 10939 10939 10938 10935 10932 10930 10929 10925 10925 10925
10908 10909 10905 10913 10920 10929 10929 10933 10934 10932 10937 10944 10946 10946 10941 10931 10927 10930 10933 10934 10936 10938 10939 10938 10939 10940 10940 10940 10939 10940 10940 10940 10940 10939 10939 10938 10937 10936 10935 10935 10933 10933 10930 10927 10925 10923 10921 10918 10919
10900 10901 10899 10908 10914 10921 10922 10923 10925 10927 10930 10937 10943 10942 10931 10920 10916 10923 10926 10924 10927 10929 10930 10931 10932 10933 10933 10932 10932 10932 10933 10933 10932 10933 10933 10933 10931 10930 10930 10928 10928 10927 10924 10922 10919 10917 10915 10912 10911
10891 10890 10893 10898 10906 10908 10910 10915 10921 10920 10920 10928 10938 10913 10913 10913 10914 10915 10915 10918 10919 10918 10920 10922 10924 10926 10926 10926 10925 10925 10926 10927 10926 10926 10926 10928 10926 10924 10924 10922 10922 10921 10918 10915 10913 10909 10907 10906 10904
10881 10880 10883 10888 10895 10900 10899 10906 10910 10907 10912 10914 10913 10905 10915 10913 10910 10911 10911 10912 10910 10911 10911 10913 10916 10918 10919 10918 10919 10918 10917 10918 10919 10919 10920 10921 10920 10919 10918 10917 10915 10913 10912 10909 10908 10902 10899 10897 10897
10871 10871 10872 10878 10883 10886 10888 10893 10900 10898 10899 10901 10901 10905 10904 10902 10904 10900 10904 10905 10905 10905 10905 10906 10908 10911 10912 10912 10912 10910 10909 10910 10911 10910 10912 10914 10912 10912 10910 10910 10907 10905 10905 10902 10899 10895 10891 10888 10886
10862 10862 10861 10865 10867 10869 10875 10883 10887 10885 10887 10891 10885 10891 10896 10896 10894 10896 10898 10900 10898 10899 10900 10901 10898 10904 10906 10906 10906 10903 10901 10902 10902 10902 10902 10904 10903 10902 10902 10901 10896 10894 10894 10893 10890 10888 10884 10880 10877
10852 10853 10851 10848 10848 10853 10859 10874 10876 10874 10872 10871 10881 10884 10885 10887 10889 10889 10892 10894 10894 10891 10891 10896 10891 10893 10898 10900 10897 10896 10893 10895 10893 10892 10894 10895 10892 10893 10893 10889 10885 10884 10884 10883 10881 10880 10877 10873 10871
10839 10841 10839 10840 10843 10841 10854 10864 10870 10872 10869 10863 10865 10867 10872 10879 10884 10885 10883 10884 10884 10883 10882 10881 10883 10883 10886 10891 10888 10887 10885 10884 10885 10884 10885 10887 10882 10882 10884 10883 10876 10874 10873 10871 10869 10867 10865 10864 10862
10829 10830 10830 10831 10828 10830 10841 10849 10852 10863 10863 10862 10862 10860 10861 10866 10868 10873 10875 10876 10877 10875 10874 10871 10872 10873 10876 10882 10881 10876 10874 10872 10873 10874 10877 10878 10875 10871 10871 10872 10869 10866 10863 10862 10860 10857 10855 10854 10854
10819 10821 10822 10819 10818 10819 10827 10837 10840 10837 10843 10844 10845 10843 10845 10854 10854 10857 10863 10865 10867 10866 10862 10861 10861 10866 10866 10871 10871 10868 10863 10860 10860 10862 10865 10867 10863 10859 10859 10860 10857 10855 10853 10852 10851 10848 10845 10843 10843
10807 10812 10812 10812 10809 10815 10818 10826 10828 10829 10830 10832 10830 10827 10835 10837 10841 10847 10848 10851 10855 10857 10853 10851 10851 10857 10856 10861 10859 10855 10851 10848 10849 10851 10854 10855 10851 10847 10847 10846 10844 10843 10843 10842 10840 10838 10835 10832 10832
10799 10801 10803 10802 10800 10805 10804 10807 10806 10809 10808 10811 10814 10820 10826 10830 10835 10835 10835 10836 10843 10846 10844 10843 10845 10848 10850 10851 10850 10843 10841 10838 10836 10838 10841 10841 10841 10836 10835 10833 10831 10831 10831 10829 10828 10825 10823 10821 10820
10781 10788 10791 10796 10791 10792 10793 10797 10794 10784 10795 10810 10817 10819 10818 10827 10830 10830 10831 10827 10829 10833 10833 10834 10834 10836 10836 10835 10836 10831 10830 10827 10824 10824 10825 10827 10828 10823 10822 10819 10818 10819 10818 10816 10814 10812 10811 10809 10808
10764 10770 10775 10778 10778 10776 10769 10780 10770 10777 10787 10801 10806 10810 10815 10827 10832 10827 10829 10828 10828 10830 10826 10824 10823 10824 10822 10821 10821 10817 10817 10813 10809 10810 10811 10812 10812 10810 10808 10805 10804 10804 10805 10804 10802 10799 10798 10797 10795
10750 10754 10754 10757 10758 10757 10754 10764 10763 10761 10765 10776 10787 10796 10807 10824 10837 10828 10821 10818 10820 10818 10813 10811 10809 10810 10808 10807 10804 10804 10801 10796 10793 10795 10796 10798 10796 10793 10792 10791 10790 10788 10789 10788 10787 10785 10783 10781 10779
10735 10737 10736 10739 10741 10744 10745 10749 10749 10740 10738 10755 10771 10779 10794 10804 10797 10790 10794 10792 10794 10795 10795 10797 10796 10792 10792 10790 10790 10789 10785 10780 10777 10777 10781 10780 10778 10776 10777 10775 10775 10774 10771 10770 10770 10769 10768 10764 10762
10709 10719 10719 10723 10726 10733 10731 10731 10731 10718 10726 10736 10750 10766 10774 10782 10784 10778 10782 10782 10782 10778 10777 10780 10780 10780 10775 10772 10773 10768 10764 10762 10761 10760 10760 10757 10757 10759 10760 10759 10758 10757 10755 10753 10752 10751 10750 10747 10744
10684 10698 10703 10703 10701 10710 10710 10710 10700 10707 10711 10721 10729 10742 10753 10755 10760 10766 10772 10774 10772 10767 10765 10767 10765 10757 10754 10750 10748 10743 10740 10741 10741 10744 10741 10737 10738 10739 10741 10741 10740 10738 10736 10734 10734 10732 10731 10728 10725
10668 10666 10673 10679 10678 10689 10688 10682 10678 10693 10698 10702 10708 10714 10724 10732 10736 10742 10751 10758 10760 10755 10757 10757 10748 10746 10734 10728 10724 10718 10718 10719 10720 10723 10723 10721 10720 10721 10722 10722 10722 10719 10718 10716 10715 10712 10710 10707 10704
10645 10645 10643 10648 10653 10661 10666 10657 10659 10675 10679 10682 10684 10688 10694 10705 10715 10720 10730 10737 10742 10742 10740 10742 10737 10729 10708 10706 10703 10701 10700 10698 10697 10705 10705 10702 10701 10703 10704 10702 10703 10700 10698 10695 10693 10690 10688 10684 10680
10609 10612 10617 10617 10624 10633 10640 10636 10637 10646 10648 10655 10656 10658 10665 10672 10692 10701 10706 10714 10724 10730 10726 10722 10718 10706 10692 10680 10682 10682 10679 10677 10675 10685 10689 10689 10686 10683 10683 10681 10683 10682 10679 10674 10671 10668 10663 10661 10656
10586 10584 10585 10588 10595 10601 10608 10617 10614 10618 10625 10627 10630 10634 10642 10644 10660 10674 10682 10688 10700 10704 10700 10680 10678 10670 10664 10662 10661 10660 10653 10647 10655 10657 10669 10669 10663 10662 10659 10659 10660 10658 10652 10650 10647 10645 10640 10634 10631